Time,TemperatureF,DewpointF,PressureIn,WindDirection,WindDirectionDegrees,WindSpeedMPH,WindSpeedGustMPH,Humidity,HourlyPrecipIn,Conditions,Clouds,dailyrainin,SoftwareType,DateUTC
2013-02-06 00:02:00,31.0,28.0,-100.00,West,272,6.0,14.0,88,0.00,,,-99.99,,2013-02-06 05:02:00,
2013-02-06 00:12:00,31.0,30.0,-100.00,West,273,6.0,14.0,90,0.00,,,-99.99,,2013-02-06 05:12:00,
2013-02-06 00:22:00,31.0,28.0,-100.00,West,278,7.0,14.0,86,0.00,,,-99.99,,2013-02-06 05:22:00,
2013-02-06 00:32:00,30.0,27.0,-100.00,West,264,6.0,14.0,86,0.00,,,-99.99,,2013-02-06 05:32:00,
2013-02-06 00:42:00,30.0,28.0,-100.00,WNW,293,7.0,14.0,86,0.00,,,-99.99,,2013-02-06 05:42:00,
2013-02-06 00:53:00,30.0,27.0,-100.00,WNW,282,7.0,14.0,86,0.00,,,-99.99,,2013-02-06 05:53:00,
2013-02-06 01:01:00,30.0,28.0,-100.00,WNW,288,9.0,14.0,88,0.00,,,-99.99,,2013-02-06 06:01:00,
2013-02-06 01:11:00,31.0,28.0,-100.00,West,269,9.0,14.0,88,0.00,,,-99.99,,2013-02-06 06:11:00,
2013-02-06 01:22:00,30.0,28.0,-100.00,WNW,282,7.0,14.0,89,0.00,,,-99.99,,2013-02-06 06:22:00,
2013-02-06 01:32:00,31.0,28.0,-100.00,West,280,6.0,14.0,89,0.00,,,-99.99,,2013-02-06 06:32:00,
2013-02-06 01:42:00,30.0,28.0,-100.00,WNW,289,7.0,14.0,89,0.00,,,-99.99,,2013-02-06 06:42:00,
2013-02-06 01:51:00,30.0,28.0,-100.00,West,265,6.0,14.0,89,0.00,,,-99.99,,2013-02-06 06:51:00,
2013-02-06 02:02:00,30.0,28.0,-100.00,NW,304,7.0,14.0,88,0.00,,,-99.99,,2013-02-06 07:02:00,
2013-02-06 02:11:00,30.0,28.0,-100.00,WNW,290,6.0,14.0,88,0.00,,,-99.99,,2013-02-06 07:11:00,
2013-02-06 02:22:00,30.0,28.0,-100.00,West,279,6.0,14.0,89,0.00,,,-99.99,,2013-02-06 07:22:00,
2013-02-06 02:32:00,30.0,28.0,-100.00,WNW,283,7.0,14.0,86,0.00,,,-99.99,,2013-02-06 07:32:00,
2013-02-06 02:42:00,30.0,27.0,-100.00,WNW,293,5.0,14.0,85,0.00,,,-99.99,,2013-02-06 07:42:00,
2013-02-06 02:52:00,30.0,27.0,-100.00,WNW,288,4.0,14.0,84,0.00,,,-99.99,,2013-02-06 07:52:00,
2013-02-06 03:01:00,30.0,27.0,-100.00,West,280,5.0,14.0,85,0.00,,,-99.99,,2013-02-06 08:01:00,
2013-02-06 03:11:00,29.0,27.0,-100.00,West,265,4.0,14.0,85,0.00,,,-99.99,,2013-02-06 08:11:00,
2013-02-06 03:21:00,29.0,27.0,-100.00,West,273,4.0,14.0,85,0.00,,,-99.99,,2013-02-06 08:21:00,
2013-02-06 03:32:00,29.0,27.0,-100.00,WNW,288,4.0,14.0,85,0.00,,,-99.99,,2013-02-06 08:32:00,
2013-02-06 03:42:00,30.0,27.0,-100.00,WNW,285,4.0,14.0,85,0.00,,,-99.99,,2013-02-06 08:42:00,
2013-02-06 03:53:00,29.0,27.0,-100.00,WNW,293,5.0,14.0,85,0.00,,,-99.99,,2013-02-06 08:53:00,
2013-02-06 04:02:00,29.0,25.0,-100.00,WNW,302,5.0,14.0,82,0.00,,,-99.99,,2013-02-06 09:02:00,
2013-02-06 04:11:00,30.0,27.0,-100.00,WNW,297,6.0,14.0,82,0.00,,,-99.99,,2013-02-06 09:11:00,
2013-02-06 04:22:00,31.0,27.0,-100.00,West,279,6.0,14.0,82,0.00,,,-99.99,,2013-02-06 09:22:00,
2013-02-06 04:32:00,30.0,27.0,-100.00,WNW,286,5.0,14.0,81,0.00,,,-99.99,,2013-02-06 09:32:00,
2013-02-06 04:42:00,29.0,25.0,-100.00,WNW,295,5.0,14.0,81,0.00,,,-99.99,,2013-02-06 09:42:00,
2013-02-06 04:52:00,29.0,25.0,-100.00,NNW,328,3.0,14.0,81,0.00,,,-99.99,,2013-02-06 09:52:00,
2013-02-06 05:01:00,29.0,25.0,-100.00,NW,319,1.0,14.0,81,0.00,,,-99.99,,2013-02-06 10:01:00,
2013-02-06 05:11:00,30.0,27.0,-100.00,NW,313,2.0,14.0,81,0.00,,,-99.99,,2013-02-06 10:11:00,
2013-02-06 05:22:00,29.0,25.0,-100.00,NNW,331,2.0,14.0,81,0.00,,,-99.99,,2013-02-06 10:22:00,
2013-02-06 05:32:00,29.0,23.0,-100.00,NW,324,4.0,14.0,76,0.00,,,-99.99,,2013-02-06 10:32:00,
2013-02-06 05:42:00,28.0,23.0,-100.00,North,352,5.0,14.0,76,0.00,,,-99.99,,2013-02-06 10:42:00,
2013-02-06 05:52:00,28.0,23.0,-100.00,NNW,345,3.0,14.0,77,0.00,,,-99.99,,2013-02-06 10:52:00,
2013-02-06 06:01:00,28.0,23.0,-100.00,North,350,3.0,14.0,76,0.00,,,-99.99,,2013-02-06 11:01:00,
2013-02-06 06:11:00,28.0,23.0,-100.00,North,358,4.0,14.0,77,0.00,,,-99.99,,2013-02-06 11:11:00,
2013-02-06 06:22:00,28.0,21.0,-100.00,North,2,5.0,14.0,75,0.00,,,-99.99,,2013-02-06 11:22:00,
2013-02-06 06:32:00,27.0,21.0,-100.00,NNE,15,5.0,14.0,75,0.00,,,-99.99,,2013-02-06 11:32:00,
2013-02-06 06:42:00,27.0,21.0,-100.00,North,7,4.0,14.0,76,0.00,,,-99.99,,2013-02-06 11:42:00,
2013-02-06 06:52:00,27.0,19.0,-100.00,North,11,4.0,14.0,73,0.00,,,-99.99,,2013-02-06 11:52:00,
2013-02-06 07:02:00,27.0,19.0,-100.00,North,5,4.0,14.0,72,0.00,,,-99.99,,2013-02-06 12:02:00,
2013-02-06 07:12:00,25.0,19.0,-100.00,NNE,31,2.0,14.0,75,0.00,,,-99.99,,2013-02-06 12:12:00,
2013-02-06 07:22:00,28.0,19.0,-100.00,North,11,4.0,14.0,69,0.00,,,-99.99,,2013-02-06 12:22:00,
2013-02-06 07:32:00,25.0,18.0,-100.00,NNE,18,3.0,14.0,71,0.00,,,-99.99,,2013-02-06 12:32:00,
2013-02-06 07:42:00,25.0,18.0,-100.00,NNE,18,2.0,14.0,71,0.00,,,-99.99,,2013-02-06 12:42:00,
2013-02-06 07:52:00,25.0,18.0,-100.00,NNE,21,2.0,14.0,71,0.00,,,-99.99,,2013-02-06 12:52:00,
2013-02-06 08:02:00,24.0,18.0,-100.00,NNE,28,2.0,14.0,71,0.00,,,-99.99,,2013-02-06 13:02:00,
2013-02-06 08:12:00,24.0,16.0,-100.00,NE,35,2.0,14.0,69,0.00,,,-99.99,,2013-02-06 13:12:00,
2013-02-06 08:22:00,24.0,18.0,-100.00,NNE,21,1.0,14.0,71,0.00,,,-99.99,,2013-02-06 13:22:00,
2013-02-06 08:32:00,23.0,16.0,-100.00,NNE,33,0.0,14.0,72,0.00,,,-99.99,,2013-02-06 13:32:00,
2013-02-06 08:42:00,22.0,16.0,-100.00,NE,52,0.0,14.0,73,0.00,,,-99.99,,2013-02-06 13:42:00,
2013-02-06 08:52:00,22.0,16.0,-100.00,NE,52,0.0,14.0,75,0.00,,,-99.99,,2013-02-06 13:52:00,
2013-02-06 09:02:00,22.0,16.0,-100.00,NE,52,0.0,14.0,75,0.00,,,-99.99,,2013-02-06 14:02:00,
2013-02-06 09:11:00,22.0,16.0,-100.00,NE,48,1.0,14.0,72,0.00,,,-99.99,,2013-02-06 14:11:00,
2013-02-06 09:22:00,26.0,19.0,-100.00,NE,52,1.0,14.0,72,0.00,,,-99.99,,2013-02-06 14:22:00,
2013-02-06 09:32:00,24.0,16.0,-100.00,ENE,60,1.0,14.0,68,0.00,,,-99.99,,2013-02-06 14:32:00,
2013-02-06 09:42:00,26.0,16.0,-100.00,ENE,69,1.0,14.0,64,0.00,,,-99.99,,2013-02-06 14:42:00,
2013-02-06 09:52:00,25.0,14.0,-100.00,ENE,67,2.0,14.0,63,0.00,,,-99.99,,2013-02-06 14:52:00,
2013-02-06 10:02:00,25.0,14.0,-100.00,East,80,2.0,14.0,60,0.00,,,-99.99,,2013-02-06 15:02:00,
2013-02-06 10:11:00,26.0,14.0,-100.00,East,83,1.0,14.0,56,0.00,,,-99.99,,2013-02-06 15:11:00,
2013-02-06 10:21:00,26.0,14.0,-100.00,East,93,2.0,14.0,58,0.00,,,-99.99,,2013-02-06 15:21:00,
2013-02-06 10:32:00,26.0,14.0,-100.00,East,91,4.0,14.0,56,0.00,,,-99.99,,2013-02-06 15:32:00,
2013-02-06 10:42:00,23.0,12.0,-100.00,East,79,4.0,14.0,58,0.00,,,-99.99,,2013-02-06 15:42:00,
2013-02-06 10:52:00,26.0,12.0,-100.00,East,84,4.0,14.0,55,0.00,,,-99.99,,2013-02-06 15:52:00,
2013-02-06 11:01:00,26.0,14.0,-100.00,East,86,4.0,14.0,55,0.00,,,-99.99,,2013-02-06 16:01:00,
2013-02-06 11:11:00,27.0,14.0,-100.00,East,79,4.0,4.0,56,0.00,,,-99.99,,2013-02-06 16:11:00,
2013-02-06 11:22:00,26.0,14.0,-100.00,East,83,3.0,4.0,55,0.00,,,-99.99,,2013-02-06 16:22:00,
2013-02-06 11:32:00,27.0,14.0,-100.00,East,98,4.0,4.0,55,0.00,,,-99.99,,2013-02-06 16:32:00,
2013-02-06 11:42:00,27.0,14.0,-100.00,ENE,72,4.0,6.0,56,0.00,,,-99.99,,2013-02-06 16:42:00,
2013-02-06 11:52:00,27.0,14.0,-100.00,East,81,4.0,6.0,55,0.00,,,-99.99,,2013-02-06 16:52:00,
2013-02-06 12:02:00,28.0,16.0,-100.00,East,87,5.0,6.0,55,0.00,,,-99.99,,2013-02-06 17:02:00,
2013-02-06 12:12:00,28.0,14.0,-100.00,ENE,60,4.0,6.0,55,0.00,,,-99.99,,2013-02-06 17:12:00,
2013-02-06 12:22:00,28.0,16.0,-100.00,ENE,62,4.0,6.0,55,0.00,,,-99.99,,2013-02-06 17:22:00,
2013-02-06 12:32:00,28.0,14.0,-100.00,ENE,74,4.0,6.0,54,0.00,,,-99.99,,2013-02-06 17:32:00,
2013-02-06 12:42:00,28.0,14.0,-100.00,East,90,4.0,6.0,53,0.00,,,-99.99,,2013-02-06 17:42:00,
2013-02-06 12:52:00,29.0,14.0,-100.00,East,84,4.0,6.0,49,0.00,,,-99.99,,2013-02-06 17:52:00,
2013-02-06 13:02:00,29.0,14.0,-100.00,ENE,76,4.0,6.0,50,0.00,,,-99.99,,2013-02-06 18:02:00,
2013-02-06 13:12:00,30.0,14.0,-100.00,SE,136,4.0,6.0,51,0.00,,,-99.99,,2013-02-06 18:12:00,
2013-02-06 13:23:00,29.0,14.0,-100.00,SSE,148,3.0,6.0,53,0.00,,,-99.99,,2013-02-06 18:23:00,
2013-02-06 13:32:00,29.0,14.0,-100.00,SE,135,3.0,6.0,51,0.00,,,-99.99,,2013-02-06 18:32:00,
2013-02-06 13:42:00,30.0,14.0,-100.00,ESE,112,3.0,6.0,50,0.00,,,-99.99,,2013-02-06 18:42:00,
2013-02-06 13:52:00,30.0,14.0,-100.00,East,97,2.0,6.0,49,0.00,,,-99.99,,2013-02-06 18:52:00,
2013-02-06 14:02:00,31.0,16.0,-100.00,ESE,108,4.0,6.0,51,0.00,,,-99.99,,2013-02-06 19:02:00,
2013-02-06 14:11:00,31.0,16.0,-100.00,East,94,4.0,6.0,53,0.00,,,-99.99,,2013-02-06 19:11:00,
2013-02-06 14:22:00,30.0,14.0,-100.00,East,79,4.0,6.0,49,0.00,,,-99.99,,2013-02-06 19:22:00,
2013-02-06 14:32:00,30.0,16.0,-100.00,East,90,5.0,6.0,54,0.00,,,-99.99,,2013-02-06 19:32:00,
2013-02-06 14:42:00,30.0,16.0,-100.00,SE,125,4.0,6.0,51,0.00,,,-99.99,,2013-02-06 19:42:00,
2013-02-06 14:52:00,29.0,14.0,-100.00,East,101,4.0,6.0,50,0.00,,,-99.99,,2013-02-06 19:52:00,
2013-02-06 15:01:00,30.0,16.0,-100.00,East,93,4.0,6.0,51,0.00,,,-99.99,,2013-02-06 20:01:00,
2013-02-06 15:11:00,30.0,14.0,-100.00,ESE,122,5.0,6.0,50,0.00,,,-99.99,,2013-02-06 20:11:00,
2013-02-06 15:21:00,31.0,18.0,-100.00,SE,142,4.0,6.0,53,0.00,,,-99.99,,2013-02-06 20:21:00,
2013-02-06 15:32:00,29.0,16.0,-100.00,SE,135,4.0,6.0,53,0.00,,,-99.99,,2013-02-06 20:32:00,
2013-02-06 15:42:00,30.0,16.0,-100.00,SE,127,4.0,6.0,53,0.00,,,-99.99,,2013-02-06 20:42:00,
2013-02-06 15:52:00,31.0,16.0,-100.00,SSE,148,3.0,6.0,50,0.00,,,-99.99,,2013-02-06 20:52:00,
2013-02-06 16:02:00,31.0,16.0,-100.00,SE,125,2.0,6.0,50,0.00,,,-99.99,,2013-02-06 21:02:00,
2013-02-06 16:11:00,32.0,16.0,-100.00,SE,134,1.0,6.0,50,0.00,,,-99.99,,2013-02-06 21:11:00,
2013-02-06 16:21:00,31.0,16.0,-100.00,SE,127,2.0,6.0,51,0.00,,,-99.99,,2013-02-06 21:21:00,
2013-02-06 16:32:00,30.0,16.0,-100.00,SE,132,2.0,6.0,51,0.00,,,-99.99,,2013-02-06 21:32:00,
2013-02-06 16:42:00,30.0,16.0,-100.00,ESE,112,4.0,6.0,53,0.00,,,-99.99,,2013-02-06 21:42:00,
2013-02-06 16:51:00,30.0,18.0,-100.00,ENE,70,2.0,6.0,56,0.00,,,-99.99,,2013-02-06 21:51:00,
2013-02-06 17:01:00,30.0,16.0,-100.00,ENE,67,3.0,6.0,54,0.00,,,-99.99,,2013-02-06 22:01:00,
2013-02-06 17:11:00,31.0,18.0,-100.00,ENE,76,1.0,6.0,54,0.00,,,-99.99,,2013-02-06 22:11:00,
2013-02-06 17:22:00,31.0,18.0,-100.00,ENE,66,1.0,6.0,54,0.00,,,-99.99,,2013-02-06 22:22:00,
2013-02-06 17:32:00,30.0,18.0,-100.00,NE,56,2.0,6.0,56,0.00,,,-99.99,,2013-02-06 22:32:00,
2013-02-06 17:42:00,30.0,16.0,-100.00,ENE,59,2.0,6.0,54,0.00,,,-99.99,,2013-02-06 22:42:00,
2013-02-06 17:52:00,31.0,18.0,-100.00,ENE,72,2.0,6.0,56,0.00,,,-99.99,,2013-02-06 22:52:00,
2013-02-06 18:01:00,29.0,18.0,-100.00,ENE,69,2.0,6.0,59,0.00,,,-99.99,,2013-02-06 23:01:00,
2013-02-06 18:11:00,27.0,18.0,-100.00,East,87,2.0,6.0,62,0.00,,,-99.99,,2013-02-06 23:11:00,
2013-02-06 18:21:00,26.0,16.0,-100.00,ENE,74,3.0,6.0,60,0.00,,,-99.99,,2013-02-06 23:21:00,
2013-02-06 18:32:00,26.0,16.0,-100.00,East,80,4.0,6.0,62,0.00,,,-99.99,,2013-02-06 23:32:00,
2013-02-06 18:42:00,24.0,16.0,-100.00,ENE,72,2.0,6.0,64,0.00,,,-99.99,,2013-02-06 23:42:00,
2013-02-06 18:52:00,23.0,16.0,-100.00,ENE,66,2.0,6.0,68,0.00,,,-99.99,,2013-02-06 23:52:00,
2013-02-06 19:02:00,23.0,16.0,-100.00,NE,49,2.0,6.0,68,0.00,,,-99.99,,2013-02-07 00:02:00,
2013-02-06 19:11:00,22.0,14.0,-100.00,ENE,57,4.0,6.0,67,0.00,,,-99.99,,2013-02-07 00:11:00,
2013-02-06 19:22:00,22.0,14.0,-100.00,ENE,72,2.0,6.0,69,0.00,,,-99.99,,2013-02-07 00:22:00,
2013-02-06 19:32:00,23.0,16.0,-100.00,East,91,4.0,6.0,67,0.00,,,-99.99,,2013-02-07 00:32:00,
2013-02-06 19:42:00,25.0,16.0,-100.00,East,98,4.0,6.0,67,0.00,,,-99.99,,2013-02-07 00:42:00,
2013-02-06 19:52:00,26.0,16.0,-100.00,East,101,6.0,8.0,64,0.00,,,-99.99,,2013-02-07 00:52:00,
2013-02-06 20:01:00,25.0,16.0,-100.00,East,93,5.0,8.0,64,0.00,,,-99.99,,2013-02-07 01:01:00,
2013-02-06 20:11:00,23.0,16.0,-100.00,NE,52,3.0,8.0,72,0.00,,,-99.99,,2013-02-07 01:11:00,
2013-02-06 20:21:00,23.0,16.0,-100.00,ENE,67,2.0,8.0,71,0.00,,,-99.99,,2013-02-07 01:21:00,
2013-02-06 20:32:00,21.0,16.0,-100.00,NE,56,3.0,8.0,73,0.00,,,-99.99,,2013-02-07 01:32:00,
2013-02-06 20:42:00,19.0,12.0,-100.00,East,79,4.0,8.0,73,0.00,,,-99.99,,2013-02-07 01:42:00,
2013-02-06 20:52:00,23.0,18.0,-100.00,East,93,4.0,8.0,73,0.00,,,-99.99,,2013-02-07 01:52:00,
2013-02-06 21:01:00,22.0,16.0,-100.00,East,90,4.0,8.0,72,0.00,,,-99.99,,2013-02-07 02:01:00,
2013-02-06 21:12:00,23.0,16.0,-100.00,ENE,70,3.0,8.0,68,0.00,,,-99.99,,2013-02-07 02:12:00,
2013-02-06 21:21:00,23.0,16.0,-100.00,East,87,2.0,8.0,72,0.00,,,-99.99,,2013-02-07 02:21:00,
2013-02-06 21:32:00,23.0,16.0,-100.00,ENE,76,2.0,8.0,72,0.00,,,-99.99,,2013-02-07 02:32:00,
2013-02-06 21:42:00,23.0,16.0,-100.00,ENE,76,2.0,8.0,72,0.00,,,-99.99,,2013-02-07 02:42:00,
2013-02-06 21:51:00,23.0,16.0,-100.00,ENE,76,2.0,8.0,72,0.00,,,-99.99,,2013-02-07 02:51:00,
2013-02-06 22:02:00,23.0,16.0,-100.00,East,90,6.0,8.0,69,0.00,,,-99.99,,2013-02-07 03:02:00,
2013-02-06 22:11:00,24.0,16.0,-100.00,ESE,108,5.0,8.0,69,0.00,,,-99.99,,2013-02-07 03:11:00,
2013-02-06 22:21:00,25.0,18.0,-100.00,East,100,4.0,8.0,69,0.00,,,-99.99,,2013-02-07 03:21:00,
2013-02-06 22:32:00,25.0,18.0,-100.00,ENE,70,4.0,8.0,71,0.00,,,-99.99,,2013-02-07 03:32:00,
2013-02-06 22:42:00,24.0,18.0,-100.00,ENE,63,4.0,8.0,72,0.00,,,-99.99,,2013-02-07 03:42:00,
2013-02-06 22:52:00,22.0,16.0,-100.00,East,81,4.0,8.0,75,0.00,,,-99.99,,2013-02-07 03:52:00,
2013-02-06 23:01:00,22.0,16.0,-100.00,East,83,4.0,8.0,75,0.00,,,-99.99,,2013-02-07 04:01:00,
2013-02-06 23:11:00,23.0,18.0,-100.00,East,101,4.0,8.0,75,0.00,,,-99.99,,2013-02-07 04:11:00,
2013-02-06 23:22:00,24.0,18.0,-100.00,ESE,115,5.0,8.0,72,0.00,,,-99.99,,2013-02-07 04:22:00,
2013-02-06 23:32:00,23.0,18.0,-100.00,ESE,114,6.0,8.0,75,0.00,,,-99.99,,2013-02-07 04:32:00,
2013-02-06 23:42:00,23.0,18.0,-100.00,SE,141,5.0,8.0,75,0.00,,,-99.99,,2013-02-07 04:42:00,
2013-02-06 23:53:00,24.0,18.0,-100.00,ESE,115,6.0,8.0,75,0.00,,,-99.99,,2013-02-07 04:53:00,